Date,TemperatureHighF,TemperatureAvgF,TemperatureLowF,DewpointHighF,DewpointAvgF,DewpointLowF,HumidityHigh,HumidityAvg,HumidityLow,PressureMaxIn,PressureMinIn,WindSpeedMaxMPH,WindSpeedAvgMPH,GustSpeedMaxMPH,PrecipitationSumIn
2013-9-1,97,80,71,77,69,62,100,73,34,29.83,29.74,11,2,11,0.00
2013-9-2,97,80,70,75,69,64,96,73,36,29.85,29.74,15,2,15,0.00
2013-9-3,90,79,72,77,72,69,100,82,52,29.85,29.77,11,1,11,0.00
2013-9-4,100,81,72,79,70,62,100,73,31,29.94,29.83,16,1,16,0.00
2013-9-5,99,82,72,74,68,62,96,68,31,29.97,29.85,8,1,8,0.00
2013-9-6,94,77,71,74,69,62,96,80,43,29.91,29.83,17,1,17,0.00
2013-9-7,95,78,68,75,67,58,100,73,33,29.88,29.80,13,2,13,0.00
2013-9-8,96,79,69,75,65,55,100,68,27,29.85,29.77,11,1,11,0.00
2013-9-9,95,78,68,72,64,56,97,67,29,29.91,29.83,13,1,13,0.00
2013-9-10,94,79,68,72,65,56,96,66,29,29.97,29.88,15,2,15,0.00
2013-9-11,94,79,71,71,67,62,91,70,38,29.97,29.88,15,2,15,0.00
2013-9-12,94,78,70,78,70,65,100,78,44,29.91,29.74,9,1,9,0.00
2013-9-13,98,80,70,74,66,57,97,68,28,29.77,29.62,13,1,13,0.00
2013-9-14,100,81,70,72,66,59,96,65,29,29.85,29.68,10,1,10,0.00
2013-9-15,97,81,72,76,69,63,96,70,36,29.94,29.83,14,2,14,3.35
2013-9-16,98,82,72,75,68,58,97,69,29,29.94,29.83,12,2,12,0.00
2013-9-17,97,80,71,77,69,62,100,74,36,29.94,29.85,16,2,16,0.00
2013-9-18,88,76,70,72,68,61,92,77,44,29.94,29.85,17,3,17,0.00
2013-9-19,91,76,69,73,69,63,100,81,42,29.94,29.85,15,2,15,0.16
2013-9-20,99,76,67,74,66,61,100,76,33,29.91,29.77,10,1,10,0.00
2013-9-21,98,78,67,73,65,57,100,68,29,29.80,29.62,9,1,9,0.00
2013-9-22,82,75,72,73,70,67,97,87,68,29.71,29.59,12,1,12,0.20
2013-9-23,81,74,71,76,72,68,100,95,77,29.80,29.68,11,1,11,0.28
2013-9-24,85,75,73,78,74,73,100,96,72,29.80,29.68,8,0,8,0.24
2013-9-25,86,76,71,74,72,68,100,88,60,29.68,29.59,14,2,14,0.04
2013-9-26,88,76,70,77,70,64,100,82,52,29.77,29.59,14,2,14,0.00
2013-9-27,86,73,66,66,64,61,91,73,46,29.85,29.74,21,3,21,0.00
2013-9-28,78,72,68,70,66,60,97,82,63,29.91,29.80,14,3,14,0.04
2013-9-29,94,74,66,66,64,58,95,74,39,29.88,29.77,11,3,11,0.00
2013-9-30,87,74,67,69,64,60,96,73,45,29.88,29.80,13,2,13,0.00